UWE-4 (43880 NORAD) Tracking and Keplerian Element Data

This shows tracking and keplerian element data for the satellite.

Feedback or suggestion? Click here.




ElementValue
Catalog43880
NameUWE-4
Epoch Orbit2715
Epoch Day191.16469787
Epoch Year2019
RAAN98.9582
Inclination97.7182
Eccentricity0.0011217
Argument of Perigee320.1775
Mean Anonmoly39.8623
Mean Motion14.96240106
Decay Rate6.91E-06
L11 43880U 18111E 19191.16469787 .00000691 00000-0 66314-4 0 9994
L22 43880 97.7182 98.9582 0011217 320.1775 39.8623 14.96240106 27156

Live tracking and technical data element details for UWE-4 (NORAD 43880). UWE-4 can be tracked NOW for your location showing map with azimuth and elevation plus other details from your city location.

Track the satellite on the map from your city or location and see movement details for azimuth, elevation, latitude, longitude, range, height, and movement on the map or in text.







IsCatalogInMostPopularTable: catalog: 43880, numindb: 63
Update: records affected: 1



GetName: 43880 UWE-4

Hit Count: updated at: Tue, 16 Jul 2019 20:15:44 GMT